#timestamp,LO_Frequency,Hit,StdDev 
1608310815.1,286047002.1,N
1608310835.9,286047002.1,N
1608310855.7,286047002.6,N
1608310875.5,286047002.7,N
1608310895.4,286047002.1,N
1608310915.2,286047001.4,N
1608310935.0,286047004.3,Y
1608310935.9,286047004.3,P
1608310955.8,286047000.1,N
1608310975.6,286047002.8,N
1608310995.4,286047001.8,N
1608311015.3,286047001.5,N
1608311035.1,286047003.9,Y
1608311036.0,286047003.9,P
1608311055.8,286047002.2,N
1608311075.7,286047001.7,N
1608311095.5,286047003.5,Y
1608311115.3,286047000.5,P
1608311135.2,286047002.3,N
1608311155.9,286047004.0,P
1608311175.7,286047005.9,Y
1608311195.6,286047001.3,P
1608311215.4,286047003.5,P
1608311235.2,286047001.3,N
1608311255.1,286047001.4,N
1608311256.0,286047001.4,N
1608311275.8,286047003.9,Y
1608311295.6,286046999.8,P
1608311315.5,286047001.9,N
1608311335.3,286047004.4,P
1608311355.1,286047003.9,N
1608311375.9,286047003.6,N
1608311395.7,286047004.0,N
1608311415.5,286047003.0,N
1608311435.4,286047005.5,Y
1608311455.2,286047001.6,P
1608311475.0,286047002.2,P
1608311475.9,286047002.2,P
1608311495.8,286047002.0,Y
1608311515.6,286047000.5,P
1608311535.4,286047000.2,N
1608311555.3,286046999.7,N
1608311575.1,286047000.1,N
1608311576.0,286047000.1,N
1608311595.8,286047002.3,N
1608311615.7,286047002.3,N
1608311635.5,286047001.8,N
1608311655.3,286047006.0,Y
1608311675.2,286047003.9,P
1608311695.9,286047003.6,N
1608311715.7,286047006.0,P
1608311735.6,286047004.3,N
1608311755.4,286047003.9,N
1608311775.2,286047003.5,N
1608311795.1,286047004.0,N
1608311796.0,286047004.0,Y
1608311815.8,286046998.2,P
1608311835.6,286046998.5,N
1608311855.5,286046999.8,N
1608311875.3,286047002.5,N
1608311895.1,286046999.8,N
1608311915.9,286047000.2,N
1608311935.7,286047002.4,N
1608311955.5,286047002.7,N
1608311975.4,286046999.8,N
1608311995.2,286047002.3,N
1608312015.0,286047002.0,N
1608312015.9,286047002.0,N
1608312035.8,286047002.5,N
1608312055.6,286047002.6,N
1608312075.4,286047002.6,N
1608312095.3,286047002.4,N
1608312115.1,286047002.2,N
1608312116.0,286047002.2,N
1608312135.8,286047001.3,N
1608312155.7,286047004.4,N
1608312175.5,286047001.5,N
1608312195.3,286047002.1,N
1608312215.2,286047002.0,N
1608312235.9,286047001.5,N
1608312255.7,286047004.4,N
1608312275.6,286047001.3,N
1608312295.4,286047001.6,N
1608312315.2,286047002.1,N
1608312335.0,286047004.3,N
1608312336.0,286047004.3,N
1608312355.8,286047004.2,N
1608312375.6,286047011.9,Y
1608312395.5,286047000.5,P
1608312415.3,286046999.7,N
1608312435.1,286047001.7,N
1608312455.9,286047002.0,N
1608312475.7,286047002.6,N
1608312495.5,286047000.0,N
1608312515.4,286047002.6,N
1608312535.2,286047000.1,N
1608312555.0,286047000.4,N
1608312555.9,286047000.4,N
1608312575.8,286047000.5,N
1608312595.6,286046999.9,N
1608312615.4,286047000.6,N
1608312635.2,286047000.6,N
1608312655.1,286047000.3,N
1608312656.0,286047000.3,N
1608312675.8,286047000.8,N
1608312695.6,286046998.6,N
1608312715.5,286046998.9,N
1608312735.3,286046999.6,N
1608312755.1,286046999.1,N
1608312775.9,286046997.2,N
1608312795.7,286046997.7,N
1608312815.5,286046997.5,N
1608312835.4,286046995.3,Y
1608312855.2,286046997.6,P
1608312875.0,286046997.9,N
1608312875.9,286046997.9,N
1608312895.8,286046997.0,N
1608312915.6,286046995.3,Y
1608312935.4,286046998.8,P
1608312955.3,286046998.8,P
1608312975.1,286047001.1,P
1608312995.8,286046999.1,N
1608313015.7,286046998.9,N
1608313035.5,286046999.0,N
1608313055.3,286046999.1,N
1608313075.2,286046999.4,N
1608313095.0,286046999.6,N
1608313095.9,286046999.6,N
1608313115.8,286046996.7,Y
1608313135.6,286046999.0,P
1608313155.4,286046997.7,P
1608313175.2,286046996.8,P
1608313195.1,286046996.5,Y
1608313196.0,286046996.5,P
1608313215.8,286046998.3,N
1608313235.7,286046998.2,N
1608313255.5,286046998.1,N
1608313275.3,286046996.6,Y
1608313295.2,286047000.4,P
1608313315.9,286047000.9,N
1608313335.7,286047002.4,N
1608313355.6,286047000.9,N
1608313375.4,286046998.2,N
1608313395.2,286047001.0,N
1608313415.0,286047000.8,N
1608313416.0,286047000.8,N
1608313435.8,286046998.1,N
1608313455.6,286046999.3,N
1608313475.5,286046998.4,N
1608313495.3,286046998.1,N
1608313515.1,286046998.2,N
1608313535.8,286046999.4,N
1608313555.7,286046999.5,N
1608313575.5,286046999.1,N
1608313595.3,286046999.5,N
1608313615.2,286046999.5,N
1608313635.0,286046999.6,N
1608313635.9,286046999.6,N
1608313655.7,286046996.5,N
1608313675.6,286046997.4,N
1608313695.4,286046997.1,N
1608313715.2,286046996.7,N
1608313735.1,286046997.1,N
1608313736.0,286046997.1,N
1608313755.8,286046996.8,N
1608313775.6,286046997.4,N
1608313795.5,286046997.8,N
1608313815.3,286046997.9,N
1608313835.1,286046995.2,Y
1608313855.9,286046997.4,P
1608313875.7,286046997.0,P
1608313895.5,286046996.8,P
1608313915.4,286046997.8,N
1608313935.2,286046997.2,Y
1608313955.0,286046998.5,P
1608313955.9,286046998.5,P
1608313975.8,286046998.9,N
1608313995.6,286046998.3,Y
1608314015.4,286047011.9,P
1608314035.3,286047000.2,N
1608314055.1,286047000.6,N
1608314075.8,286047000.9,N
1608314095.7,286047001.1,N
1608314115.5,286047001.1,N
1608314135.3,286046998.1,N
1608314155.2,286046998.3,N
1608314175.0,286047000.7,N
1608314175.9,286047000.7,N
1608314195.7,286046999.3,N
1608314215.6,286046999.2,N
1608314235.4,286046998.2,N
1608314255.2,286046999.4,N
1608314275.1,286046999.1,N
1608314276.0,286046999.1,N
1608314295.8,286046997.1,N
1608314315.6,286046996.8,N
1608314335.5,286046997.6,N
1608314355.3,286046997.5,N
1608314375.1,286046998.0,N
1608314395.9,286046995.2,N
